Weather History for Columbia Airport, CA

Change the Weather History Date:

Thursday, August 1, 2013

  Actual Average (KMOD) Record (KMOD)
Temperature  
Mean Temperature 69 °F -  
Max Temperature 87 °F 95 °F 106 °F (1993)
Min Temperature 51 °F 63 °F 50 °F (1937)
Degree Days  
Heating Degree Days 0 0  
Month to date heating degree days 0  
Since 1 June heating degree days 3  
Since 1 July heating degree days 0  
Cooling Degree Days 4 14  
Month to date cooling degree days 14  
Year to date cooling degree days 949  
Since 1 June cooling degree days 750  
Growing Degree Days 19 (Base 50)    
Moisture  
Dew Point 34 °F    
Average Humidity 31    
Maximum Humidity 58    
Minimum Humidity 11    
Precipitation  
Precipitation 0.00 in 0.00 in 0.00 in (2014)
Month to date precipitation 0.00  
Year to date precipitation 8.75  
Since 1 July precipitation T  
Snow  
Snow 0.00 in - - ()
Month to date snowfall  
Since 1 June snowfall  
Since 1 July snowfall  
Snow Depth -    
Sea Level Pressure  
Sea Level Pressure 30.02 in    
Wind  
Wind Speed 2 mph (WSW)    
Max Wind Speed 13 mph    
Max Gust Speed 20 mph    
Visibility 10 miles    
Events      
T = Trace of Precipitation, MM = Missing Value Source: NWS Daily Summary

Daily Weather History Graph

Daily Weather History Graph

Search for Another Location

Airport:

Trip Planner

Search our weather history database for the weather conditions in past years. The results will help you decide how hot, cold, wet, or windy it might be!

Date:

Astronomy

Aug. 01, 2013 Rise Set
Actual Time 6:04 AM PDT 8:10 PM PDT
Civil Twilight 5:35 AM PDT 8:39 PM PDT
Nautical Twilight 4:59 AM PDT 9:15 PM PDT
Astronomical Twilight 4:21 AM PDT 9:53 PM PDT
Moon 1:45 AM PDT (8/1) 4:23 PM PDT (8/1)
Length of Visible Light 15h 03m
Length of Day
14h 05m
Waning Crescent, 22% of the Moon is Illuminated
Aug 1
Waning Crescent
Aug 6
New
Aug 14
First Quarter
Aug 20
Full
Aug 28
Last Quarter

Hourly Weather History & Observations

Time (PDT) Temp. Dew Point Humidity Pressure Visibility Wind Dir Wind Speed Gust Speed Precip Events Conditions
12:15 AM 59.0 °F 32.0 °F 36% 30.04 in 10.0 mi Calm Calm - N/A   Clear
12:35 AM 59.0 °F 32.0 °F 36% 30.03 in 10.0 mi Calm Calm - N/A   Partly Cloudy
12:55 AM 57.2 °F 32.0 °F 38% 30.03 in 10.0 mi Calm Calm - N/A   Clear
1:15 AM 57.2 °F 33.8 °F 41% 30.02 in 10.0 mi Calm Calm - N/A   Mostly Cloudy
1:35 AM 57.2 °F 33.8 °F 41% 30.02 in 10.0 mi Calm Calm - N/A   Mostly Cloudy
1:55 AM 55.4 °F 35.6 °F 47% 30.03 in 10.0 mi Calm Calm - N/A   Scattered Clouds
2:15 AM 55.4 °F 35.6 °F 47% 30.02 in 10.0 mi Calm Calm - N/A   Partly Cloudy
2:35 AM 55.4 °F 35.6 °F 47% 30.02 in 10.0 mi Calm Calm - N/A   Clear
2:55 AM 55.4 °F 35.6 °F 47% 30.02 in 10.0 mi Calm Calm - N/A   Partly Cloudy
3:15 AM 53.6 °F 35.6 °F 51% 30.02 in 10.0 mi Calm Calm - N/A   Scattered Clouds
3:35 AM 53.6 °F 35.6 °F 51% 30.01 in 10.0 mi Calm Calm - N/A   Scattered Clouds
3:55 AM 53.6 °F 37.4 °F 54% 30.01 in 10.0 mi Calm Calm - N/A   Partly Cloudy
4:15 AM 53.6 °F 37.4 °F 54% 30.01 in 10.0 mi Calm Calm - N/A   Partly Cloudy
4:35 AM 53.6 °F 37.4 °F 54% 30.02 in 10.0 mi Calm Calm - N/A   Clear
4:55 AM 53.6 °F 37.4 °F 54% 30.02 in 10.0 mi Calm Calm - N/A   Clear
5:15 AM 53.6 °F 37.4 °F 54% 30.02 in 10.0 mi Calm Calm - N/A   Clear
5:35 AM 53.6 °F 37.4 °F 54% 30.03 in 10.0 mi Calm Calm - N/A   Clear
5:55 AM 51.8 °F 37.4 °F 58% 30.03 in 10.0 mi Calm Calm - N/A   Clear
6:15 AM 51.8 °F 37.4 °F 58% 30.03 in 10.0 mi Calm Calm - N/A   Clear
6:35 AM 51.8 °F 37.4 °F 58% 30.03 in 10.0 mi Calm Calm - N/A   Clear
6:55 AM 55.4 °F 37.4 °F 51% 30.03 in 10.0 mi Calm Calm - N/A   Clear
7:15 AM 59.0 °F 37.4 °F 45% 30.04 in 10.0 mi Calm Calm - N/A   Clear
7:35 AM 62.6 °F 39.2 °F 42% 30.04 in 10.0 mi Calm Calm - N/A   Clear
7:55 AM 68.0 °F 37.4 °F 33% 30.04 in 10.0 mi Calm Calm - N/A   Clear
8:15 AM 71.6 °F 37.4 °F 29% 30.05 in 10.0 mi South 3.5 mph - N/A   Clear
8:35 AM 71.6 °F 37.4 °F 29% 30.05 in 10.0 mi South 3.5 mph - N/A   Clear
8:55 AM 73.4 °F 35.6 °F 25% 30.05 in 10.0 mi South 3.5 mph - N/A   Clear
9:15 AM 73.4 °F 33.8 °F 23% 30.05 in 10.0 mi Calm Calm - N/A   Clear
9:35 AM 77.0 °F 26.6 °F 16% 30.05 in 10.0 mi South 4.6 mph - N/A   Clear
9:55 AM 77.0 °F 24.8 °F 14% 30.06 in 10.0 mi South 3.5 mph - N/A   Clear
10:15 AM 78.8 °F 26.6 °F 15% 30.06 in 10.0 mi South 4.6 mph - N/A   Clear
10:35 AM 80.6 °F 28.4 °F 15% 30.06 in 10.0 mi South 4.6 mph - N/A   Clear
10:55 AM 82.4 °F 30.2 °F 15% 30.06 in 10.0 mi SW 4.6 mph - N/A   Clear
11:15 AM 82.4 °F 30.2 °F 15% 30.06 in 10.0 mi South 4.6 mph - N/A   Clear
11:35 AM 82.4 °F 28.4 °F 14% 30.06 in 10.0 mi SSW 4.6 mph - N/A   Clear
11:55 AM 84.2 °F 30.2 °F 14% 30.06 in 10.0 mi WSW 5.8 mph - N/A   Clear
12:15 PM 84.2 °F 30.2 °F 14% 30.06 in 10.0 mi WSW 6.9 mph - N/A   Clear
12:35 PM 84.2 °F 30.2 °F 14% 30.06 in 10.0 mi WSW 5.8 mph - N/A   Clear
12:55 PM 86.0 °F 24.8 °F 11% 30.06 in 10.0 mi West 6.9 mph - N/A   Clear
1:15 PM 86.0 °F 30.2 °F 13% 30.05 in 10.0 mi WSW 9.2 mph - N/A   Clear
1:35 PM 86.0 °F 28.4 °F 12% 30.04 in 10.0 mi West 5.8 mph - N/A   Clear
1:55 PM 86.0 °F 30.2 °F 13% 30.04 in 10.0 mi WSW 5.8 mph - N/A   Clear
2:15 PM 87.8 °F 30.2 °F 13% 30.03 in 10.0 mi SW 6.9 mph - N/A   Clear
2:35 PM 87.8 °F 28.4 °F 12% 30.02 in 10.0 mi WSW 10.4 mph - N/A   Clear
2:55 PM 86.0 °F 28.4 °F 12% 30.02 in 10.0 mi WSW 6.9 mph - N/A   Clear
3:15 PM 86.0 °F 32.0 °F 14% 30.01 in 10.0 mi WSW 10.4 mph - N/A   Clear
3:35 PM 87.8 °F 30.2 °F 13% 30.01 in 10.0 mi SW 8.1 mph - N/A   Clear
3:55 PM 87.8 °F 32.0 °F 14% 30.00 in 10.0 mi SW 10.4 mph - N/A   Clear
4:15 PM 87.8 °F 32.0 °F 14% 30.00 in 10.0 mi West 12.7 mph 19.6 mph N/A   Clear
4:35 PM 87.8 °F 32.0 °F 14% 30.00 in 10.0 mi WNW 9.2 mph - N/A   Clear
4:55 PM 84.2 °F 32.0 °F 15% 30.00 in 10.0 mi WNW 8.1 mph - N/A   Clear
5:15 PM 84.2 °F 32.0 °F 15% 29.99 in 10.0 mi NNW 6.9 mph - N/A   Clear
5:35 PM 84.2 °F 30.2 °F 14% 29.99 in 10.0 mi West 8.1 mph - N/A   Clear
5:55 PM 84.2 °F 30.2 °F 14% 29.98 in 10.0 mi NW 5.8 mph - N/A   Clear
6:15 PM 82.4 °F 30.2 °F 15% 29.98 in 10.0 mi NW 8.1 mph - N/A   Clear
6:35 PM 82.4 °F 32.0 °F 16% 29.98 in 10.0 mi West 5.8 mph - N/A   Clear
6:55 PM 80.6 °F 32.0 °F 17% 29.98 in 10.0 mi WNW 5.8 mph - N/A   Clear
7:15 PM 78.8 °F 35.6 °F 21% 29.98 in 10.0 mi WNW 5.8 mph - N/A   Clear
7:35 PM 77.0 °F 35.6 °F 22% 29.98 in 10.0 mi WNW 5.8 mph - N/A   Clear
7:55 PM 75.2 °F 35.6 °F 24% 29.98 in 10.0 mi NW 4.6 mph - N/A   Clear
8:15 PM 71.6 °F 35.6 °F 27% 29.98 in 10.0 mi NW 4.6 mph - N/A   Clear
8:35 PM 68.0 °F 35.6 °F 30% 29.98 in 10.0 mi Calm Calm - N/A   Clear
8:55 PM 66.2 °F 37.4 °F 35% 29.98 in 10.0 mi Calm Calm - N/A   Clear
9:15 PM 64.4 °F 37.4 °F 37% 29.98 in 10.0 mi Calm Calm - N/A   Clear
9:35 PM 62.6 °F 37.4 °F 39% 29.99 in 10.0 mi NE 3.5 mph - N/A   Clear
9:55 PM 60.8 °F 37.4 °F 42% 29.98 in 10.0 mi NE 3.5 mph - N/A   Clear
10:15 PM 60.8 °F 37.4 °F 42% 29.98 in 10.0 mi Calm Calm - N/A   Clear
10:35 PM 59.0 °F 37.4 °F 45% 29.98 in 10.0 mi Calm Calm - N/A   Clear
10:55 PM 57.2 °F 37.4 °F 48% 29.98 in 10.0 mi Calm Calm - N/A   Clear
11:15 PM 57.2 °F 37.4 °F 48% 29.97 in 10.0 mi ENE 3.5 mph - N/A   Clear
11:35 PM 57.2 °F 37.4 °F 48% 29.98 in 10.0 mi Calm Calm - N/A   Clear
11:55 PM 55.4 °F 37.4 °F 51% 29.98 in 10.0 mi Calm Calm - N/A   Clear